Regional Weather Roundup
Issued by NWS Little Rock, AR

Home | Current Version | Previous Version | Text Only | Print | Product List | Glossary Off
Versions: 1 2 3 4 5 6 7 8 9 10 11 12 13 14 15 16 17 18 19 20 21 22 23 24 25 26 27 28 29 30 31 32 33 34 35 36 37 38 39 40 41 42 43 44 45 46 47 48 49 50

195
ASUS44 KLZK 240405
RWRLZK

WEATHER ROUNDUP FOR ARKANSAS
NATIONAL WEATHER SERVICE LITTLE ROCK AR
1100 PM CDT TUE MAY 23 2017

NOTE: "FAIR" INDICATES FEW OR NO CLOUDS BELOW 12,000 FEET WITH NO
SIGNIFICANT WEATHER AND/OR OBSTRUCTIONS TO VISIBILITY.

ARZ001-003-010-029-240500-
NORTHWEST ARKANSAS

CITY           SKY/WX    TMP DP  RH WIND       PRES   REMARKS
FAYETTEVILLE   MOCLDY    56  50  80 NW9       29.80R
FORT SMITH     CLOUDY    62  54  74 W9        29.80R
HARRISON       PTCLDY    54  52  93 W5        29.77F
BENTONVILLE    CLOUDY    57  46  67 NW3       29.81S
ROGERS         CLOUDY    53  49  86 W6        29.81S
SILOAM SPGS    CLOUDY    55  45  67 NW8       29.81S
HIGHFILL       CLOUDY    57  49  74 NW3       29.81S
$$

ARZ004-005-016-240500-
NORTH CENTRAL ARKANSAS

CITY           SKY/WX    TMP DP  RH WIND       PRES   REMARKS
BATESVILLE     CLOUDY    63  55  77 NW5       29.73S
FLIPPIN        PTCLDY    57  52  82 CALM      29.73S
MTN HOME       CLEAR     55  54  96 CALM      29.75F
$$

ARZ040-041-240500-
WEST CENTRAL ARKANSAS

CITY           SKY/WX    TMP DP  RH WIND       PRES   REMARKS
MENA           CLOUDY    61  59  94 W5        29.82R
MOUNT IDA      CLOUDY    60  57  89 CALM      29.77R
$$

ARZ009-017-025-026-028-240500-
NORTHEAST ARKANSAS

CITY           SKY/WX    TMP DP  RH WIND       PRES   REMARKS
JONESBORO      CLOUDY    61  59  93 NW3       29.69F
NEWPORT        CLOUDY    61  60  97 NW7       29.71S
WALNUT RIDGE   CLOUDY    63  57  82 W6        29.71S
BLYTHEVILLE    MOCLDY    63  61  93 NW8       29.68F
$$

ARZ022-023-033-042-044-240500-
CENTRAL ARKANSAS

CITY           SKY/WX    TMP DP  RH WIND       PRES   REMARKS
LITTLE ROCK    CLOUDY    63  58  83 NW13      29.73S
N LITTLE ROCK    N/A     60  58  90 N8        29.72F
JACKSONVILLE   LGT RAIN  63  59  88 NW8       29.72F
CONWAY           N/A     64  61  88 NW3       29.74S
SEARCY         LGT RAIN  62  61  96 VRB3      29.74S
HOT SPRINGS    LGT RAIN  64  57  78 NW5       29.76R
RUSSELLVILLE   CLOUDY    63  56  78 NW6       29.76R
CLINTON        CLOUDY    61  59  94 CALM      29.75R
$$

ARZ036-240500-
EAST ARKANSAS

CITY           SKY/WX    TMP DP  RH WIND       PRES   REMARKS
WEST MEMPHIS   LGT RAIN  63  58  83 N5        29.67F
$$

ARZ050-053-066-070-073-240500-
SOUTHWEST ARKANSAS

CITY           SKY/WX    TMP DP  RH WIND       PRES   REMARKS
CAMDEN         LGT RAIN  63  59  88 W7        29.74R
TEXARKANA      LGT RAIN  59  58  96 NW7       29.82R
EL DORADO      LGT RAIN  62  61  96 SW6       29.76R
DE QUEEN       CLOUDY    60  57  89 SW3       29.80R
$$

ARZ056-057-069-240500-
SOUTHEAST ARKANSAS

CITY           SKY/WX    TMP DP  RH WIND       PRES   REMARKS
PINE BLUFF     LGT RAIN  65  57  75 N6        29.72S
STUTTGART      CLOUDY    64  52  63 NW7       29.72F
MONTICELLO     CLOUDY    63  60  90 NW5       29.71S

$$






USA.gov is the U.S. government's official web portal to all federal, state and local government web resources and services.